CW8262 Weather Reports


Display with metric or nautical units.
time (UTC)temp
F
wind
direction
speed
MPH
gust
MPH
rain 1hr
in
rain 24hr
in
rain mn
in
humidity
%
barometer
mb
20171123222203 72 264 3.0 5.0 0.00 0.00 0.00 63 1029.8
20171123221703 74 263 3.0 6.0 0.00 0.00 0.00 62 1029.8
20171123221203 79 240 3.0 6.0 0.00 0.00 0.00 56 1029.8
20171123220703 80 292 2.0 5.0 0.00 0.00 0.00 54 1029.8
20171123220203 79 164 2.0 3.0 0.00 0.00 0.00 57 1029.8
20171123215702 78 315 2.0 3.0 0.00 0.00 0.00 58 1029.8
20171123215203 76 288 3.0 5.0 0.00 0.00 0.00 62 1029.8
20171123211203 76 59 0.0 1.0 0.00 0.00 0.00 60 1030.1
20171123210704 75 45 0.0 0.0 0.00 0.00 0.00 60 1030.3
20171123210203 76 51 1.0 2.0 0.00 0.00 0.00 58 1030.3
20171123205702 77 225 1.0 1.0 0.00 0.00 0.00 60 1030.3
20171123204703 75 292 1.0 2.0 0.00 0.00 0.00 65 1030.1
20171123204202 74 315 1.0 1.0 0.00 0.00 0.00 65 1030.1
20171123200703 66 112 1.0 2.0 0.00 0.00 0.00 77 1030.3
20171123195702 64 68 1.0 2.0 0.00 0.00 0.00 80 1030.3
20171123195203 64 68 1.0 2.0 0.00 0.00 0.00 80 1030.3
20171123194702 64 68 1.0 2.0 0.00 0.00 0.00 80 1030.4
20171123194203 63 115 1.0 5.0 0.00 0.00 0.00 80 1030.4
20171123193703 63 135 1.0 5.0 0.00 0.00 0.00 80 1030.4
20171123193202 63 82 0.0 2.0 0.00 0.00 0.00 80 1030.4
20171123192703 63 68 0.0 0.0 0.00 0.00 0.00 82 1030.4
20171123192203 62 55 0.0 0.0 0.00 0.00 0.00 82 1030.4
20171123191203 62 54 0.0 0.0 0.00 0.00 0.00 83 1030.4
20171123190703 61 68 0.0 0.0 0.00 0.00 0.00 84 1030.2
20171123190203 61 52 0.0 0.0 0.00 0.00 0.00 84 1030.2
20171123185703 61 22 0.0 0.0 0.00 0.00 0.00 85 1030.2
20171123184203 60 112 0.0 0.0 0.00 0.00 0.00 84 1030.2
20171123183703 60 52 0.0 1.0 0.00 0.00 0.00 85 1030.2
20171123183203 60 45 0.0 1.0 0.00 0.00 0.00 86 1030.2
20171123182203 59 112 0.0 0.0 0.00 0.00 0.00 86 1030.5
20171123181704 58 77 0.0 0.0 0.00 0.00 0.00 87 1030.5
20171123181202 58 112 0.0 1.0 0.00 0.00 0.00 87 1030.5
20171123175203 57 112 0.0 0.0 0.00 0.00 0.00 88 1030.1
20171123174703 57 93 0.0 1.0 0.00 0.00 0.00 88 1030.0
20171123173704 57 68 0.0 0.0 0.00 0.00 0.00 89 1030.0
20171123172703 57 42 0.0 0.0 0.00 0.00 0.00 89 1029.9
20171123171703 57 72 0.0 0.0 0.00 0.00 0.00 90 1029.9
20171123171203 56 68 0.0 0.0 0.00 0.00 0.00 89 1029.9
20171123170203 56 112 0.0 0.0 0.00 0.00 0.00 89 1029.8
20171123164703 57 342 0.0 0.0 0.00 0.00 0.00 89 1029.7
20171123164203 57 90 0.0 1.0 0.00 0.00 0.00 89 1029.7
20171123163703 57 110 0.0 2.0 0.00 0.00 0.00 89 1029.7
20171123162703 57 109 0.0 0.0 0.00 0.00 0.00 89 1029.4
20171123162204 57 90 0.0 0.0 0.00 0.00 0.00 89 1029.4
20171123161203 58 112 0.0 0.0 0.00 0.00 0.00 89 1029.4
20171123160703 58 112 0.0 2.0 0.00 0.00 0.00 89 1029.6
20171123160204 57 112 0.0 1.0 0.00 0.00 0.00 89 1029.6
20171123155704 57 111 0.0 2.0 0.00 0.00 0.00 89 1029.6
20171123154703 57 91 0.0 1.0 0.00 0.00 0.00 89 1029.6
20171123154203 58 112 0.0 1.0 0.00 0.00 0.00 89 1029.6
20171123153702 58 112 0.0 2.0 0.00 0.00 0.00 89 1029.6
20171123153204 58 90 0.0 1.0 0.00 0.00 0.00 89 1029.6
20171123152703 58 112 0.0 1.0 0.00 0.00 0.00 89 1029.9
20171123152204 58 68 0.0 0.0 0.00 0.00 0.00 89 1029.9
20171123151703 58 111 0.0 0.0 0.00 0.00 0.00 90 1029.9
20171123145702 56 112 0.0 0.0 0.00 0.00 0.00 90 1030.0
20171123145204 56 47 0.0 0.0 0.00 0.00 0.00 90 1030.0
20171123144204 57 70 0.0 0.0 0.00 0.00 0.00 89 1030.1
20171123143703 57 45 0.0 0.0 0.00 0.00 0.00 90 1030.1
20171123142703 56 90 0.0 0.0 0.00 0.00 0.00 89 1029.9
20171123142204 57 68 0.0 0.0 0.00 0.00 0.00 89 1029.9
20171123141204 57 45 0.0 0.0 0.00 0.00 0.00 90 1029.9
20171123140702 57 68 0.0 0.0 0.00 0.00 0.00 89 1030.2
20171123135703 57 45 0.0 0.0 0.00 0.00 0.00 90 1030.2
20171123134704 57 68 1.0 1.0 0.00 0.00 0.00 90 1030.4
20171123134204 57 45 0.0 1.0 0.00 0.00 0.00 90 1030.4
20171123133703 57 45 0.0 1.0 0.00 0.00 0.00 90 1030.4
20171123132707 57 22 0.0 0.0 0.00 0.00 0.00 89 1030.6
20171123132204 57 45 0.0 0.0 0.00 0.00 0.00 89 1030.6
20171123131703 57 45 0.0 0.0 0.00 0.00 0.00 89 1030.6
20171123131204 57 63 0.0 0.0 0.00 0.00 0.00 88 1030.6
20171123130703 58 68 0.0 0.0 0.00 0.00 0.00 88 1030.6
20171123130203 58 42 0.0 0.0 0.00 0.00 0.00 88 1030.6
20171123125704 58 22 0.0 0.0 0.00 0.00 0.00 87 1030.6
20171123125203 59 22 0.0 1.0 0.00 0.00 0.00 87 1030.6
20171123124203 59 19 0.0 0.0 0.00 0.00 0.00 87 1030.7
20171123122704 59 292 0.0 0.0 0.00 0.00 0.00 87 1030.8
20171123122203 59 270 0.0 0.0 0.00 0.00 0.00 87 1030.8
20171123121703 59 315 0.0 0.0 0.00 0.00 0.00 87 1030.8
20171123121204 59 158 0.0 0.0 0.00 0.00 0.00 87 1030.8
20171123120703 59 158 0.0 0.0 0.00 0.00 0.00 87 1031.1
20171123120203 59 202 0.0 0.0 0.00 0.00 0.00 87 1031.1
20171123115704 59 202 0.0 0.0 0.00 0.00 0.00 86 1031.1
20171123115203 59 315 0.0 0.0 0.00 0.00 0.00 86 1031.1
20171123114203 59 315 0.0 0.0 0.00 0.00 0.00 86 1031.1
20171123113703 59 338 0.0 0.0 0.00 0.00 0.00 86 1031.1
20171123113204 59 346 0.0 0.0 0.00 0.00 0.00 86 1031.1
20171123112203 59 22 0.0 0.0 0.00 0.00 0.00 85 1031.0
20171123111203 59 22 0.0 0.0 0.00 0.00 0.00 85 1031.0
20171123110704 59 338 0.0 1.0 0.00 0.00 0.00 85 1031.2
20171123110203 59 0 0.0 1.0 0.00 0.00 0.00 85 1031.2
20171123105703 60 338 0.0 0.0 0.00 0.00 0.00 84 1031.2
20171123104202 60 23 1.0 2.0 0.00 0.00 0.00 84 1030.9
20171123103703 60 22 1.0 2.0 0.00 0.00 0.00 84 1030.9
20171123103203 61 22 1.0 2.0 0.00 0.00 0.00 83 1030.9
20171123102703 61 45 1.0 2.0 0.00 0.00 0.00 83 1030.9
20171123102203 61 22 1.0 2.0 0.00 0.00 0.00 83 1030.9
20171123101703 61 22 0.0 2.0 0.00 0.00 0.00 83 1030.9
20171123101203 61 61 0.0 1.0 0.00 0.00 0.00 83 1030.9
20171123100203 62 355 0.0 2.0 0.00 0.00 0.00 83 1031.1
20171123095703 62 338 0.0 1.0 0.00 0.00 0.00 83 1031.1
20171123095203 62 18 0.0 2.0 0.00 0.00 0.00 83 1031.1
20171123094704 62 22 0.0 1.0 0.00 0.00 0.00 83 1030.9
20171123093703 62 338 1.0 2.0 0.00 0.00 0.00 84 1030.9
20171123093203 62 0 1.0 3.0 0.00 0.00 0.00 84 1030.9
20171123092203 62 42 2.0 3.0 0.00 0.00 0.00 84 1030.5
20171123091703 62 22 2.0 2.0 0.00 0.00 0.00 84 1030.5
20171123085703 61 22 1.0 3.0 0.00 0.00 0.00 84 1031.0
20171123085203 61 22 0.0 0.0 0.00 0.00 0.00 84 1031.0
20171123084703 61 0 0.0 1.0 0.00 0.00 0.00 84 1029.8
20171123083703 62 0 0.0 1.0 0.00 0.00 0.00 83 1029.8
20171123083203 62 0 1.0 1.0 0.00 0.00 0.00 82 1029.8
20171123082703 62 338 2.0 1.0 0.00 0.00 0.00 82 1029.3
20171123082203 63 315 3.0 5.0 0.00 0.00 0.00 82 1029.3
20171123075203 64 338 2.0 5.0 0.00 0.00 0.00 81 1029.0
20171123074203 64 322 2.0 2.0 0.00 0.00 0.00 80 1028.8
20171123073703 64 338 3.0 5.0 0.00 0.00 0.00 79 1028.8
20171123073203 64 315 5.0 5.0 0.00 0.00 0.00 79 1028.8
20171123072703 65 292 5.0 5.0 0.00 0.00 0.00 79 1029.0
20171123071703 65 315 5.0 7.0 0.00 0.00 0.00 78 1029.0
20171123071203 66 292 5.0 6.0 0.00 0.00 0.00 77 1029.0
20171123070203 67 315 6.0 8.0 0.00 0.00 0.00 76 1029.6
20171123065703 67 292 6.0 7.0 0.00 0.00 0.00 75 1029.6
20171123065203 67 286 6.0 8.0 0.00 0.00 0.00 74 1029.6
20171123064703 67 292 5.0 7.0 0.00 0.00 0.00 74 1030.1
20171123063703 68 292 5.0 6.0 0.00 0.00 0.00 73 1030.1
20171123063203 68 276 6.0 7.0 0.00 0.00 0.00 72 1030.1
20171123062703 69 248 7.0 9.0 0.00 0.00 0.00 71 1030.1
20171123061703 69 270 5.0 7.0 0.00 0.00 0.00 71 1030.1
20171123061204 70 283 6.0 7.0 0.00 0.00 0.00 71 1030.1
20171123060702 70 292 7.0 8.0 0.00 0.00 0.00 71 1030.1
20171123055703 71 270 7.0 8.0 0.00 0.00 0.00 69 1030.1
20171123054703 71 225 7.0 8.0 0.00 0.00 0.00 68 1030.1
20171123054203 71 270 7.0 10.0 0.00 0.00 0.00 68 1030.1
20171123053703 72 292 7.0 8.0 0.00 0.00 0.00 69 1030.1
20171123052703 73 270 7.0 9.0 0.00 0.00 0.00 66 1030.1
20171123052203 73 262 7.0 10.0 0.00 0.00 0.00 64 1030.1
20171123051703 73 315 7.0 9.0 0.00 0.00 0.00 64 1030.1
20171123051203 74 292 7.0 10.0 0.00 0.00 0.00 63 1030.1
20171123050703 74 270 8.0 10.0 0.00 0.00 0.00 63 1030.1
20171123050203 74 278 8.0 8.0 0.00 0.00 0.00 62 1030.1
20171123045703 75 315 8.0 8.0 0.00 0.00 0.00 60 1030.1
20171123045203 75 315 8.0 8.0 0.00 0.00 0.00 60 1030.1
20171123044703 75 315 9.0 10.0 0.00 0.00 0.00 59 1029.9
20171123042704 77 270 8.0 10.0 0.00 0.00 0.00 56 1029.4
20171123042203 78 315 7.0 9.0 0.00 0.00 0.00 55 1029.4
20171123041703 79 292 7.0 10.0 0.00 0.00 0.00 54 1029.4
20171123040703 80 315 7.0 9.0 0.00 0.00 0.00 51 1029.4
20171123040203 81 306 7.0 10.0 0.00 0.00 0.00 50 1029.4
20171123035703 82 292 7.0 8.0 0.00 0.00 0.00 48 1029.4
20171123035202 82 283 7.0 9.0 0.00 0.00 0.00 48 1029.4
20171123034703 82 270 6.0 7.0 0.00 0.00 0.00 47 1028.9
20171123034203 83 301 7.0 8.0 0.00 0.00 0.00 47 1028.9
20171123033702 83 270 7.0 7.0 0.00 0.00 0.00 45 1028.9
20171123032704 83 315 6.0 8.0 0.00 0.00 0.00 44 1028.8
20171123032203 83 286 6.0 9.0 0.00 0.00 0.00 45 1028.8
20171123031703 84 292 6.0 6.0 0.00 0.00 0.00 46 1028.8
20171123031203 83 265 6.0 7.0 0.00 0.00 0.00 46 1028.8
20171123030704 83 248 6.0 9.0 0.00 0.00 0.00 45 1028.7
20171123030203 83 270 7.0 8.0 0.00 0.00 0.00 47 1028.7
20171123025703 83 270 7.0 9.0 0.00 0.00 0.00 45 1028.7
20171123025203 83 262 7.0 10.0 0.00 0.00 0.00 46 1028.7
20171123024703 84 292 6.0 10.0 0.00 0.00 0.00 47 1028.8
20171123024203 83 260 6.0 6.0 0.00 0.00 0.00 47 1028.8
20171123023703 83 292 7.0 9.0 0.00 0.00 0.00 46 1028.8
20171123023203 83 264 7.0 9.0 0.00 0.00 0.00 47 1028.8
20171123022703 83 315 7.0 8.0 0.00 0.00 0.00 47 1028.6
20171123021703 83 315 7.0 6.0 0.00 0.00 0.00 48 1028.6
20171123021203 83 284 7.0 10.0 0.00 0.00 0.00 48 1028.6
20171123020703 83 270 7.0 10.0 0.00 0.00 0.00 49 1028.7
20171123020203 83 248 6.0 10.0 0.00 0.00 0.00 48 1028.7
20171123015703 83 338 6.0 8.0 0.00 0.00 0.00 49 1028.7
20171123013703 82 254 6.0 12.0 0.00 0.00 0.00 50 1028.8
20171123012703 81 311 6.0 9.0 0.00 0.00 0.00 48 1028.6
20171123011703 81 310 6.0 9.0 0.00 0.00 0.00 52 1028.6
20171123010703 80 36 6.0 12.0 0.00 0.00 0.00 52 1028.6
20171123005703 80 318 6.0 6.0 0.00 0.00 0.00 53 1028.6
20171123004703 81 290 6.0 10.0 0.00 0.00 0.00 52 1028.3
20171123003703 81 286 5.0 8.0 0.00 0.00 0.00 52 1028.3
20171123002703 81 297 5.0 8.0 0.00 0.00 0.00 50 1028.2
20171123002203 81 292 6.0 9.0 0.00 0.00 0.00 52 1028.2
20171123001203 81 315 6.0 7.0 0.00 0.00 0.00 52 1028.2
20171123000203 80 292 5.0 8.0 0.00 0.00 0.00 54 1028.3
20171122235703 80 315 6.0 7.0 0.00 0.00 0.00 54 1028.3
20171122234703 81 315 6.0 7.0 0.00 0.00 0.00 51 1028.2
20171122233703 81 272 5.0 8.0 0.00 0.00 0.00 51 1028.2
20171122233203 81 315 6.0 6.0 0.00 0.00 0.00 52 1028.2
20171122232704 81 249 6.0 9.0 0.00 0.00 0.00 52 1028.5
20171122232203 80 270 5.0 9.0 0.00 0.00 0.00 51 1028.5
20171122231204 81 315 5.0 8.0 0.00 0.00 0.00 52 1028.5
20171122230703 80 315 5.0 7.0 0.00 0.00 0.00 51 1028.5
20171122225703 80 338 2.0 5.0 0.00 0.00 0.00 52 1028.5
20171122224203 78 269 3.0 6.0 0.00 0.00 0.00 53 1028.4
20171122223703 79 270 3.0 7.0 0.00 0.00 0.00 54 1028.4
20171122223203 78 270 3.0 7.0 0.00 0.00 0.00 54 1028.4